EW4725 Weather Reports


time (UTC)temp
C
wind
direction
speed
KPH
gust
KPH
rain 1hr
cm
rain 24hr
cm
rain mn
cm
humidity
%
barometer
mb
20260903035917 21 260 4.8 8.0 0.00 0.00 0.00 74 1014.2
20260903035417 21 238 1.6 3.2 0.00 0.00 0.00 74 1014.1
20260903034917 21 260 4.8 6.4 0.00 0.00 0.00 74 1014.0
20260903034437 21 260 3.2 9.7 0.00 0.00 0.00 74 1014.0
20260903033937 21 260 6.4 8.0 0.00 0.00 0.00 73 1013.9
20260903033417 21 283 4.8 6.4 0.00 0.00 0.00 72 1013.9
20260903032917 21 283 4.8 8.0 0.00 0.00 0.00 72 1013.9
20260903032417 21 283 4.8 8.0 0.00 0.00 0.00 72 1013.8
20260903031937 21 260 6.4 9.7 0.00 0.00 0.00 72 1013.8
20260903031417 21 260 6.4 11.3 0.00 0.00 0.00 73 1013.7
20260903030917 21 238 6.4 8.0 0.00 0.00 0.00 73 1013.7
20260903030417 21 283 4.8 8.0 0.00 0.00 0.00 72 1013.8
20260903025917 21 260 4.8 8.0 0.00 0.00 0.00 72 1013.8
20260903025417 21 283 3.2 3.2 0.00 0.00 0.00 72 1013.7
20260903024917 21 260 4.8 6.4 0.00 0.00 0.00 72 1013.7
20260903024437 21 260 6.4 6.4 0.00 0.00 0.00 72 1013.7
20260903023937 21 260 6.4 8.0 0.00 0.00 0.00 72 1013.7
20260903023417 21 260 8.0 9.7 0.00 0.00 0.00 72 1013.7
20260903022917 21 260 4.8 11.3 0.00 0.00 0.00 71 1013.7
20260903022417 21 283 9.7 12.9 0.00 0.00 0.00 70 1013.6
20260903021917 21 283 9.7 14.5 0.00 0.00 0.00 70 1013.7
20260903021417 22 283 8.0 9.7 0.00 0.00 0.00 69 1013.6
20260903020916 22 283 4.8 9.7 0.00 0.00 0.00 69 1013.6
20260903020417 22 283 8.0 12.9 0.00 0.00 0.00 67 1013.5
20260903015917 22 283 6.4 8.0 0.00 0.00 0.00 67 1013.5
20260903015437 22 238 6.4 9.7 0.00 0.00 0.00 67 1013.5
20260903014917 22 238 6.4 11.3 0.00 0.00 0.00 67 1013.6
20260903014437 22 260 14.5 19.3 0.00 0.00 0.00 65 1013.5
20260903013917 22 260 8.0 11.3 0.00 0.00 0.00 66 1013.5
20260903013417 23 283 11.3 14.5 0.00 0.00 0.00 66 1013.6
20260903012917 23 260 9.7 16.1 0.00 0.00 0.00 66 1013.6
20260903012417 23 260 11.3 19.3 0.00 0.00 0.00 66 1013.6
20260903011917 23 283 8.0 14.5 0.00 0.00 0.00 66 1013.6
20260903011417 23 260 6.4 9.7 0.00 0.00 0.00 66 1013.6
20260903010916 23 260 6.4 11.3 0.00 0.00 0.00 67 1013.5
20260903010417 23 260 6.4 9.7 0.00 0.00 0.00 68 1013.6
20260903005916 23 260 6.4 9.7 0.00 0.00 0.00 69 1013.5
20260903005417 23 283 11.3 14.5 0.00 0.00 0.00 68 1013.5
20260903004916 23 260 9.7 14.5 0.00 0.00 0.00 68 1013.5
20260903004417 24 260 11.3 16.1 0.00 0.00 0.00 66 1013.5
20260903003916 24 305 9.7 14.5 0.00 0.00 0.00 65 1013.5
20260903003417 24 283 9.7 12.9 0.00 0.00 0.00 65 1013.5
20260903002916 24 260 11.3 14.5 0.00 0.00 0.00 64 1013.5
20260903002417 24 260 11.3 17.7 0.00 0.00 0.00 63 1013.5
20260903001916 24 260 12.9 22.5 0.00 0.00 0.00 64 1013.5
20260903001416 24 260 12.9 20.9 0.00 0.00 0.00 63 1013.5
20260903000916 25 260 9.7 16.1 0.00 0.00 0.00 62 1013.5
20260903000417 25 260 12.9 17.7 0.00 0.00 0.00 61 1013.5
20260902235916 25 260 17.7 24.1 0.00 0.00 0.00 61 1013.6
20260902235416 25 283 12.9 17.7 0.00 0.00 0.00 60 1013.6
20260902234916 25 305 11.3 19.3 0.00 0.00 0.00 59 1013.6
20260902234417 25 260 11.3 12.9 0.00 0.00 0.00 58 1013.7
20260902233916 25 260 16.1 25.7 0.00 0.00 0.00 57 1013.7
20260902233417 25 283 12.9 19.3 0.00 0.00 0.00 53 1013.6
20260902232917 26 260 16.1 24.1 0.00 0.00 0.00 53 1013.7
20260902232416 26 260 12.9 17.7 0.00 0.00 0.00 51 1013.7
20260902231916 26 283 6.4 12.9 0.00 0.00 0.00 50 1013.7
20260902231417 26 260 9.7 16.1 0.00 0.00 0.00 49 1013.7
20260902230917 26 283 9.7 16.1 0.00 0.00 0.00 50 1013.8
20260902230417 26 260 9.7 16.1 0.00 0.00 0.00 49 1013.8
20260902225916 27 328 9.7 14.5 0.00 0.00 0.00 49 1013.7
20260902225417 27 283 9.7 12.9 0.00 0.00 0.00 47 1013.8
20260902224917 27 305 6.4 14.5 0.00 0.00 0.00 47 1013.8
20260902224417 27 260 8.0 19.3 0.00 0.00 0.00 48 1013.8
20260902223916 26 260 9.7 14.5 0.00 0.00 0.00 48 1013.9
20260902223436 27 260 4.8 11.3 0.00 0.00 0.00 49 1013.9
20260902222916 27 260 9.7 14.5 0.00 0.00 0.00 49 1014.0
20260902222417 27 260 12.9 16.1 0.00 0.00 0.00 50 1014.2
20260902221956 27 260 6.4 9.7 0.00 0.00 0.00 52 1014.2
20260902221416 27 170 4.8 8.0 0.00 0.00 0.00 53 1014.2
20260902220916 27 148 9.7 12.9 0.00 0.00 0.00 53 1014.3
20260902220416 27 215 6.4 11.3 0.00 0.00 0.00 54 1014.4
20260902215936 26 125 4.8 11.3 0.00 0.00 0.00 54 1014.4
20260902215416 26 238 8.0 9.7 0.00 0.00 0.00 54 1014.4
20260902214916 27 215 11.3 16.1 0.00 0.00 0.00 54 1014.6
20260902214436 27 215 8.0 12.9 0.00 0.00 0.00 55 1014.6
20260902213917 26 170 6.4 11.3 0.00 0.00 0.00 55 1014.7
20260902213416 26 170 9.7 12.9 0.00 0.00 0.00 55 1014.8
20260902212916 26 148 3.2 9.7 0.00 0.00 0.00 54 1014.8
20260902212416 26 148 8.0 11.3 0.00 0.00 0.00 53 1014.9
20260902211916 27 170 6.4 12.9 0.00 0.00 0.00 53 1014.9
20260902211416 27 148 6.4 12.9 0.00 0.00 0.00 52 1014.9
20260902210936 27 148 8.0 14.5 0.00 0.00 0.00 50 1015.0
20260902210436 27 215 3.2 11.3 0.00 0.00 0.00 50 1015.0
20260902205916 27 170 6.4 11.3 0.00 0.00 0.00 49 1015.0
20260902205436 27 148 6.4 9.7 0.00 0.00 0.00 48 1014.9
20260902204916 27 238 4.8 6.4 0.00 0.00 0.00 47 1015.0
20260902204436 27 238 6.4 11.3 0.00 0.00 0.00 50 1015.0
20260902203916 27 148 8.0 9.7 0.00 0.00 0.00 49 1015.1
20260902203456 26 238 8.0 12.9 0.00 0.00 0.00 49 1015.1
20260902202916 26 170 8.0 8.0 0.00 0.00 0.00 50 1015.1
20260902202416 26 260 8.0 11.3 0.00 0.00 0.00 49 1015.2
20260902201936 26 215 9.7 14.5 0.00 0.00 0.00 50 1015.1
20260902201416 26 193 6.4 9.7 0.00 0.00 0.00 51 1015.2
20260902200916 26 148 3.2 6.4 0.00 0.00 0.00 55 1015.3
20260902200416 26 148 6.4 9.7 0.00 0.00 0.00 56 1015.3
20260902195916 26 125 6.4 9.7 0.00 0.00 0.00 53 1015.4
20260902195436 26 148 8.0 11.3 0.00 0.00 0.00 49 1015.5
20260902194916 26 148 4.8 6.4 0.00 0.00 0.00 52 1015.5
20260902194416 26 215 4.8 8.0 0.00 0.00 0.00 53 1015.5
20260902193916 26 148 6.4 11.3 0.00 0.00 0.00 53 1015.6
20260902193416 26 170 6.4 11.3 0.00 0.00 0.00 51 1015.6
20260902192936 26 170 8.0 12.9 0.00 0.00 0.00 53 1015.8
20260902192416 26 193 4.8 9.7 0.00 0.00 0.00 53 1015.8
20260902191956 25 238 4.8 6.4 0.00 0.00 0.00 55 1015.9
20260902191416 25 260 8.0 14.5 0.00 0.00 0.00 56 1016.0
20260902190916 25 215 4.8 6.4 0.00 0.00 0.00 57 1016.0
20260902190416 25 215 4.8 9.7 0.00 0.00 0.00 56 1016.1
20260902185916 25 148 3.2 6.4 0.00 0.00 0.00 57 1016.0
20260902185416 25 283 3.2 4.8 0.00 0.00 0.00 56 1016.1
20260902184916 25 170 4.8 8.0 0.00 0.00 0.00 57 1016.1
20260902184416 25 125 4.8 8.0 0.00 0.00 0.00 58 1016.1
20260902183916 25 125 6.4 8.0 0.00 0.00 0.00 54 1016.1
20260902183416 25 238 1.6 4.8 0.00 0.00 0.00 55 1016.1
20260902182916 25 170 3.2 4.8 0.00 0.00 0.00 59 1016.0
20260902182436 25 215 6.4 9.7 0.00 0.00 0.00 59 1016.0
20260902181916 25 148 3.2 4.8 0.00 0.00 0.00 59 1016.1
20260902181416 24 215 3.2 6.4 0.00 0.00 0.00 60 1016.2
20260902180916 24 125 8.0 11.3 0.00 0.00 0.00 61 1016.1
20260902180416 24 215 1.6 3.2 0.00 0.00 0.00 62 1016.2
20260902175916 24 148 8.0 12.9 0.00 0.00 0.00 63 1016.2
20260902175416 24 125 8.0 9.7 0.00 0.00 0.00 61 1016.3
20260902174916 23 148 4.8 6.4 0.00 0.00 0.00 63 1016.3
20260902174416 24 125 9.7 12.9 0.00 0.00 0.00 62 1016.3
20260902173936 24 125 3.2 4.8 0.00 0.00 0.00 63 1016.2
20260902173416 24 260 4.8 6.4 0.00 0.00 0.00 63 1016.2
20260902172936 24 170 1.6 4.8 0.00 0.00 0.00 64 1016.2
20260902172416 24 170 1.6 3.2 0.00 0.00 0.00 63 1016.1
20260902171916 23 0.0 1.6 0.00 0.00 0.00 65 1016.0
20260902171416 23 260 6.4 6.4 0.00 0.00 0.00 64 1016.0
20260902170936 23 260 1.6 3.2 0.00 0.00 0.00 66 1016.0
20260902170416 23 305 3.2 3.2 0.00 0.00 0.00 66 1016.0
20260902165916 23 260 3.2 6.4 0.00 0.00 0.00 66 1016.1
20260902165416 23 260 8.0 11.3 0.00 0.00 0.00 65 1016.1
20260902164916 23 238 6.4 9.7 0.00 0.00 0.00 65 1016.0
20260902164416 23 0.0 3.2 0.00 0.00 0.00 67 1016.0
20260902163916 22 35 1.6 3.2 0.00 0.00 0.00 68 1016.0
20260902163436 22 0.0 0.0 0.00 0.00 0.00 69 1016.0
20260902162916 22 125 1.6 3.2 0.00 0.00 0.00 68 1016.0
20260902162416 22 148 4.8 8.0 0.00 0.00 0.00 69 1016.0
20260902161917 22 0.0 1.6 0.00 0.00 0.00 69 1016.0
20260902161436 22 80 3.2 3.2 0.00 0.00 0.00 70 1016.0
20260902160916 22 13 1.6 3.2 0.00 0.00 0.00 71 1016.1
20260902160415 22 58 1.6 4.8 0.00 0.00 0.00 70 1016.0
20260902155916 22 58 3.2 4.8 0.00 0.00 0.00 71 1016.0
20260902155416 22 35 3.2 3.2 0.00 0.00 0.00 71 1015.9
20260902154915 22 58 1.6 3.2 0.00 0.00 0.00 72 1015.9
20260902154416 21 0.0 0.0 0.00 0.00 0.00 73 1015.9
20260902153916 21 125 3.2 4.8 0.00 0.00 0.00 72 1016.0
20260902153416 21 103 3.2 3.2 0.00 0.00 0.00 73 1016.0
20260902152916 21 58 1.6 3.2 0.00 0.00 0.00 74 1015.9
20260902152416 21 58 1.6 3.2 0.00 0.00 0.00 75 1016.0
20260902151936 20 0.0 0.0 0.00 0.00 0.00 77 1016.0
20260902151416 20 125 3.2 4.8 0.00 0.00 0.00 78 1016.0
20260902150915 20 125 3.2 6.4 0.00 0.00 0.00 79 1015.9
20260902150415 20 103 1.6 3.2 0.00 0.00 0.00 80 1015.9
20260902145935 19 125 4.8 6.4 0.00 0.00 0.00 80 1015.9
20260902145435 19 125 1.6 3.2 0.00 0.00 0.00 80 1015.9
20260902144936 19 0.0 1.6 0.00 0.00 0.00 82 1015.9
20260902144416 18 125 1.6 3.2 0.00 0.00 0.00 83 1015.8
20260902143915 18 0.0 1.6 0.00 0.00 0.00 85 1015.8
20260902143416 18 0.0 1.6 0.00 0.00 0.00 87 1015.7
20260902142916 17 0.0 0.0 0.00 0.00 0.00 88 1015.7
20260902142416 17 0.0 0.0 0.00 0.00 0.00 89 1015.6
20260902141916 17 0.0 0.0 0.00 0.00 0.00 90 1015.6
20260902141435 16 0.0 0.0 0.00 0.00 0.00 90 1015.6
20260902140921 16 0.0 0.0 0.00 0.00 0.00 90 1015.5
20260902140415 16 0.0 0.0 0.00 0.00 0.00 90 1015.5
20260902135915 16 0.0 0.0 0.00 0.00 0.00 90 1015.4
20260902135415 16 0.0 0.0 0.00 0.00 0.00 91 1015.3
20260902134915 16 0.0 0.0 0.00 0.00 0.00 91 1015.3
20260902134415 16 0.0 0.0 0.00 0.00 0.00 90 1015.2
20260902133916 16 0.0 0.0 0.00 0.00 0.00 90 1015.2
20260902133416 16 0.0 0.0 0.00 0.00 0.00 91 1015.2
20260902132915 16 0.0 0.0 0.00 0.00 0.00 91 1015.1
20260902132815 16 0.0 0.0 0.00 0.00 0.00 91 1015.1
20260902132316 16 0.0 0.0 0.00 0.00 0.00 91 1015.0
20260902131815 15 0.0 0.0 0.00 0.00 0.00 91 1015.1
20260902131315 15 0.0 0.0 0.00 0.00 0.00 90 1015.1
20260902130815 15 0.0 0.0 0.00 0.00 0.00 90 1015.1
20260902130315 15 0.0 0.0 0.00 0.00 0.00 90 1015.1
20260902125816 15 0.0 0.0 0.00 0.00 0.00 89 1015.1
20260902125315 15 0.0 0.0 0.00 0.00 0.00 88 1015.0
20260902124816 16 0.0 0.0 0.00 0.00 0.00 88 1015.1
20260902124315 16 0.0 0.0 0.00 0.00 0.00 88 1015.1
20260902123815 16 0.0 0.0 0.00 0.00 0.00 88 1015.1
20260902123315 16 0.0 0.0 0.00 0.00 0.00 88 1015.2
20260902122816 16 0.0 0.0 0.00 0.00 0.00 87 1015.2
20260902122315 16 0.0 0.0 0.00 0.00 0.00 88 1015.2
20260902121815 16 0.0 0.0 0.00 0.00 0.00 87 1015.2
20260902121335 16 0.0 0.0 0.00 0.00 0.00 86 1015.2
20260902120815 16 0.0 0.0 0.00 0.00 0.00 86 1015.3
20260902120316 17 0.0 0.0 0.00 0.00 0.00 86 1015.2
20260902115816 17 0.0 0.0 0.00 0.00 0.00 86 1015.2
20260902115315 17 0.0 0.0 0.00 0.00 0.00 86 1015.2
20260902114815 17 0.0 0.0 0.00 0.00 0.00 86 1015.2
20260902114315 17 0.0 0.0 0.00 0.00 0.00 86 1015.2
20260902113836 17 0.0 0.0 0.00 0.00 0.00 86 1015.2
20260902113315 17 0.0 0.0 0.00 0.00 0.00 86 1015.3
20260902112815 17 0.0 0.0 0.00 0.00 0.00 86 1015.4
20260902112335 17 0.0 0.0 0.00 0.00 0.00 85 1015.4
20260902111815 17 0.0 0.0 0.00 0.00 0.00 85 1015.4
20260902111315 17 0.0 0.0 0.00 0.00 0.00 85 1015.4
20260902110815 17 0.0 0.0 0.00 0.00 0.00 85 1015.4
20260902110315 17 0.0 1.6 0.00 0.00 0.00 86 1015.3
20260902105815 17 0.0 1.6 0.00 0.00 0.00 86 1015.3
20260902105315 17 0.0 1.6 0.00 0.00 0.00 85 1015.3
20260902104815 17 0.0 1.6 0.00 0.00 0.00 85 1015.3
20260902104315 18 0.0 0.0 0.00 0.00 0.00 85 1015.3
20260902103815 18 0.0 0.0 0.00 0.00 0.00 85 1015.3
20260902103315 18 125 1.6 3.2 0.00 0.00 0.00 84 1015.3
20260902102815 18 0.0 1.6 0.00 0.00 0.00 84 1015.3
20260902102335 18 125 3.2 4.8 0.00 0.00 0.00 84 1015.3
20260902101815 18 0.0 1.6 0.00 0.00 0.00 84 1015.3
20260902101317 18 0.0 0.0 0.00 0.00 0.00 83 1015.4
20260902100817 18 0.0 0.0 0.00 0.00 0.00 83 1015.4
20260902100317 18 0.0 0.0 0.00 0.00 0.00 83 1015.5
20260902095815 18 0.0 0.0 0.00 0.00 0.00 83 1015.5
20260902095317 18 0.0 1.6 0.00 0.00 0.00 83 1015.5
20260902094817 18 125 3.2 3.2 0.00 0.00 0.00 83 1015.5
20260902094337 18 125 1.6 3.2 0.00 0.00 0.00 83 1015.5
20260902093817 18 125 1.6 3.2 0.00 0.00 0.00 83 1015.4
20260902093317 18 125 1.6 4.8 0.00 0.00 0.00 83 1015.4
20260902092817 18 125 1.6 3.2 0.00 0.00 0.00 83 1015.5
20260902092337 18 125 3.2 4.8 0.00 0.00 0.00 83 1015.5
20260902091817 18 125 3.2 4.8 0.00 0.00 0.00 84 1015.5
20260902091337 18 125 1.6 3.2 0.00 0.00 0.00 84 1015.6
20260902090817 18 148 1.6 1.6 0.00 0.00 0.00 84 1015.5
20260902090317 17 0.0 0.0 0.00 0.00 0.00 85 1015.5
20260902085817 17 0.0 0.0 0.00 0.00 0.00 85 1015.5
20260902085317 17 0.0 0.0 0.00 0.00 0.00 85 1015.6
20260902084817 17 0.0 0.0 0.00 0.00 0.00 85 1015.5
20260902084317 17 0.0 0.0 0.00 0.00 0.00 84 1015.5
20260902083817 17 0.0 0.0 0.00 0.00 0.00 84 1015.6
20260902083317 18 0.0 0.0 0.00 0.00 0.00 84 1015.6
20260902082817 18 0.0 0.0 0.00 0.00 0.00 84 1015.6
20260902082337 18 0.0 0.0 0.00 0.00 0.00 84 1015.7
20260902081817 18 0.0 0.0 0.00 0.00 0.00 84 1015.6
20260902081317 18 0.0 0.0 0.00 0.00 0.00 84 1015.7
20260902080817 18 0.0 0.0 0.00 0.00 0.00 84 1015.7
20260902080317 18 0.0 0.0 0.00 0.00 0.00 85 1015.7
20260902075815 17 0.0 0.0 0.00 0.00 0.00 85 1015.7
20260902075317 17 0.0 0.0 0.00 0.00 0.00 84 1015.7
20260902074817 17 0.0 0.0 0.00 0.00 0.00 84 1015.8
20260902074317 18 0.0 0.0 0.00 0.00 0.00 84 1015.7
20260902073817 18 0.0 0.0 0.00 0.00 0.00 84 1015.6
20260902073317 18 0.0 0.0 0.00 0.00 0.00 83 1015.5
20260902072817 18 0.0 0.0 0.00 0.00 0.00 84 1015.4
20260902072357 18 0.0 0.0 0.00 0.00 0.00 84 1015.3
20260902071837 18 0.0 0.0 0.00 0.00 0.00 83 1015.3
20260902071337 18 0.0 0.0 0.00 0.00 0.00 83 1015.2
20260902070817 18 0.0 0.0 0.00 0.00 0.00 83 1015.1
20260902070317 18 0.0 0.0 0.00 0.00 0.00 83 1015.1
20260902065835 18 0.0 0.0 0.00 0.00 0.00 83 1015.0
20260902065315 18 0.0 0.0 0.00 0.00 0.00 83 1015.1
20260902064815 18 0.0 0.0 0.00 0.00 0.00 82 1015.2
20260902064315 18 0.0 0.0 0.00 0.00 0.00 82 1015.2
20260902063815 18 0.0 0.0 0.00 0.00 0.00 82 1015.1
20260902063315 18 0.0 0.0 0.00 0.00 0.00 81 1015.2
20260902062855 18 0.0 1.6 0.00 0.00 0.00 82 1015.2
20260902062315 18 0.0 0.0 0.00 0.00 0.00 81 1015.2
20260902061815 18 0.0 1.6 0.00 0.00 0.00 81 1015.1
20260902061315 18 0.0 1.6 0.00 0.00 0.00 81 1015.0
20260902060815 18 283 1.6 4.8 0.00 0.00 0.00 81 1015.1
20260902060315 18 0.0 1.6 0.00 0.00 0.00 81 1015.1
20260902055815 18 0.0 0.0 0.00 0.00 0.00 81 1015.0
20260902055315 18 0.0 1.6 0.00 0.00 0.00 81 1015.0
20260902054835 18 0.0 0.0 0.00 0.00 0.00 80 1014.9
20260902054315 18 0.0 0.0 0.00 0.00 0.00 81 1014.9
20260902053815 18 0.0 0.0 0.00 0.00 0.00 80 1014.9
20260902053335 18 0.0 0.0 0.00 0.00 0.00 80 1014.9
20260902052815 18 0.0 0.0 0.00 0.00 0.00 79 1014.9
20260902052317 18 0.0 0.0 0.00 0.00 0.00 79 1014.9
20260902051817 18 0.0 0.0 0.00 0.00 0.00 77 1014.9
20260902051317 19 0.0 0.0 0.00 0.00 0.00 77 1014.9
20260902050837 19 0.0 0.0 0.00 0.00 0.00 77 1014.8
20260902050317 19 0.0 1.6 0.00 0.00 0.00 77 1014.8
20260902045817 19 0.0 0.0 0.00 0.00 0.00 76 1014.8
20260902045317 20 0.0 0.0 0.00 0.00 0.00 76 1014.8
20260902044835 20 0.0 0.0 0.00 0.00 0.00 76 1014.7
20260902044317 20 0.0 1.6 0.00 0.00 0.00 76 1014.7
20260902043817 20 260 3.2 4.8 0.00 0.00 0.00 76 1014.6
20260902043317 20 260 3.2 4.8 0.00 0.00 0.00 76 1014.5
20260902042816 20 260 3.2 6.4 0.00 0.00 0.00 76 1014.5
20260902042317 20 283 3.2 6.4 0.00 0.00 0.00 76 1014.5
20260902041817 20 260 1.6 3.2 0.00 0.00 0.00 76 1014.5
20260902041338 20 305 4.8 8.0 0.00 0.00 0.00 76 1014.4
20260902040817 20 283 4.8 8.0 0.00 0.00 0.00 77 1014.3
20260902040317 20 283 4.8 6.4 0.00 0.00 0.00 77 1014.2